Tracking 35275 objects as of 8-Sep-2026
HD Live streaming from Space Station
objects crossing your sky now

COSMOS 684

Track COSMOS 684 now!
10-day predictions
COSMOS 684 is classified as:


NORAD ID: 7442
Int'l Code: 1974-072H
Launch date: September 19, 1974
Source: Commonwealth of Independent States (former USSR) (CIS)
Launch site: PLESETSK MISSILE AND SPACE COMPLEX (PKMTR)
Your satellite tracking list
Your tracking list is empty




NASA's NSSDC Master Catalog

Two Line Element Set (TLE):
1 07442U 74072H   26250.96824740 -.00000006  00000-0  57760-4 0  9998
2 07442  74.0366 312.0440 0032053  54.6102 121.0374 12.55723550382130
Source of the keplerian elements: AFSPC